Change the Weather History Date:

Thursday, July 3, 2014

  Actual Average Record
Temperature  
Mean Temperature 74 °F 79 °F  
Max Temperature 83 °F 89 °F 100 °F (1954)
Min Temperature 65 °F 69 °F 57 °F (1924)
Degree Days  
Heating Degree Days 0 0  
Month to date heating degree days 0 0  
Since 1 June heating degree days 0 3  
Since 1 July heating degree days 0 0  
Cooling Degree Days 9 14  
Month to date cooling degree days 40 42  
Year to date cooling degree days 697 545  
Since 1 June cooling degree days 433 366  
Growing Degree Days 24 (Base 50)    
Moisture  
Dew Point 58 °F    
Average Humidity 61    
Maximum Humidity 81    
Minimum Humidity 40    
Precipitation  
Precipitation 0.00 in 0.13 in 3.20 in (1992)
Month to date precipitation 0.20 0.38  
Year to date precipitation 27.75 25.82  
Snow  
Snow 0.00 in 0.00 in 0.00 in (2002)
Month to date snowfall 0.0 0.0  
Since 1 June snowfall 0.0 0.0  
Since 1 July snowfall 0.0 0.0  
Snow Depth 0.00 in    
Sea Level Pressure  
Sea Level Pressure 30.10 in    
Wind  
Wind Speed 8 mph (NNW)    
Max Wind Speed 15 mph    
Max Gust Speed 20 mph    
Visibility 10 miles    
Events      
T = Trace of Precipitation, MM = Missing Value Source: NWS Daily Summary

Daily Weather History Graph

Daily Weather History Graph

Search for Another Location

Airport or City:

Trip Planner

Search our weather history database for the weather conditions in past years. The results will help you decide how hot, cold, wet, or windy it might be!

Date:

Astronomy

Jul. 03, 2014 Rise Set
Actual Time 5:34 AM CDT 8:07 PM CDT
Civil Twilight 5:04 AM CDT 8:37 PM CDT
Nautical Twilight 4:26 AM CDT 9:14 PM CDT
Astronomical Twilight 3:45 AM CDT 9:56 PM CDT
Moon 11:21 AM CDT 11:41 PM CDT
Length of Visible Light 15h 33m
Length of Day
14h 33m
Waxing Crescent, 33% of the Moon is Illuminated
Jul 3
Waxing Crescent
Jul 5
First Quarter
Jul 12
Full
Jul 18
Last Quarter
Jul 26
New

Hourly Weather History & Observations

Time (CDT) Temp. Heat Index Dew Point Humidity Pressure Visibility Wind Dir Wind Speed Gust Speed Precip Events Conditions
12:06 AM 75.2 °F - 64.4 °F 69% 30.04 in 10.0 mi North 9.2 mph - N/A   Overcast
12:53 AM 73.9 °F - 61.0 °F 64% 30.02 in 10.0 mi North 9.2 mph - N/A   Overcast
1:53 AM 72.0 °F - 61.0 °F 68% 30.03 in 10.0 mi North 6.9 mph - N/A   Mostly Cloudy
2:53 AM 70.0 °F - 61.0 °F 73% 30.03 in 10.0 mi North 4.6 mph - N/A   Scattered Clouds
3:53 AM 69.1 °F - 59.0 °F 70% 30.03 in 10.0 mi North 4.6 mph - N/A   Mostly Cloudy
4:53 AM 68.0 °F - 59.0 °F 73% 30.05 in 10.0 mi NNW 6.9 mph - N/A   Mostly Cloudy
5:53 AM 66.9 °F - 60.1 °F 79% 30.07 in 10.0 mi North 4.6 mph - N/A   Mostly Cloudy
6:53 AM 69.1 °F - 60.1 °F 73% 30.08 in 10.0 mi North 3.5 mph - N/A   Mostly Cloudy
7:53 AM 72.0 °F - 59.0 °F 64% 30.10 in 10.0 mi North 8.1 mph - N/A   Scattered Clouds
8:53 AM 73.9 °F - 57.0 °F 55% 30.11 in 10.0 mi North 8.1 mph - N/A   Scattered Clouds
9:53 AM 75.9 °F - 55.0 °F 48% 30.11 in 10.0 mi NNW 8.1 mph - N/A   Mostly Cloudy
10:53 AM 77.0 °F - 55.9 °F 48% 30.12 in 10.0 mi WNW 5.8 mph - N/A   Mostly Cloudy
11:53 AM 78.1 °F - 54.0 °F 43% 30.12 in 10.0 mi WNW 8.1 mph - N/A   Mostly Cloudy
12:53 PM 81.0 °F 80.7 °F 55.0 °F 41% 30.12 in 10.0 mi NNW 9.2 mph - N/A   Mostly Cloudy
1:53 PM 80.6 °F 80.5 °F 55.4 °F 42% 30.13 in 10.0 mi North 12.7 mph 19.6 mph N/A   Mostly Cloudy
2:53 PM 82.0 °F 81.6 °F 55.9 °F 41% 30.11 in 10.0 mi North 13.8 mph 18.4 mph N/A   Mostly Cloudy
3:53 PM 78.1 °F - 55.9 °F 46% 30.11 in 10.0 mi North 10.4 mph - N/A   Mostly Cloudy
4:53 PM 79.0 °F - 55.9 °F 45% 30.10 in 10.0 mi NW 10.4 mph - N/A   Mostly Cloudy
5:53 PM 78.1 °F - 57.0 °F 48% 30.10 in 10.0 mi NW 9.2 mph - N/A   Mostly Cloudy
6:53 PM 75.0 °F - 57.0 °F 53% 30.11 in 10.0 mi NNW 11.5 mph - N/A   Mostly Cloudy
7:53 PM 73.0 °F - 57.0 °F 57% 30.11 in 10.0 mi NNW 9.2 mph - N/A   Mostly Cloudy
8:53 PM 70.0 °F - 57.9 °F 65% 30.14 in 10.0 mi North 8.1 mph - N/A   Scattered Clouds
9:53 PM 69.1 °F - 57.9 °F 68% 30.16 in 10.0 mi NNW 6.9 mph - N/A   Clear
10:53 PM 66.9 °F - 59.0 °F 76% 30.16 in 10.0 mi North 8.1 mph - N/A   Clear
11:53 PM 66.0 °F - 59.0 °F 78% 30.17 in 10.0 mi North 4.6 mph - N/A   Clear